Weather observations for the past three days for
Pease Air Force Base / Portsmouth
Imperial (Metric)
Date Time (edt) Wind (mph) Vis. (mi.) Weather Sky Cond. Temperature (ºF) Relative Humidity Wind Chill (°F) Heat Index (°F) Pressure Precipitation (in)
Air Dwpt 6 hour altimeter (in) sea level (mb) 1 hr 3 hr 6 hr
Max. Min.
19 01:55 S 3 10.00 A Few Clouds FEW250 77.7 71.4 82.4 77.7 81% 80 30.2 1022.8
19 00:55 SW 6 10.00 A Few Clouds FEW250 79.9 71.2 75% 83 30.2 1022.8
18 23:55 SW 7 10.00 A Few Clouds FEW250 80.8 70.9 72% 85 30.19 1022.5
18 22:55 SW 6 10.00 A Few Clouds FEW250 80.8 71.2 73% 85 30.18 1022.2
18 21:55 S 3 10.00 A Few Clouds FEW250 80.6 72 75% 85 30.18 1022.2
18 20:55 SW 3 10.00 Partly Cloudy FEW100 SCT250 81 71.1 72% 85 30.17 1021.8
18 19:55 S 6 10.00 Mostly Cloudy BKN250 82.6 70.9 90.1 82.6 68% 87 30.15 1021.2
18 18:55 SE 8 10.00 Mostly Cloudy BKN250 84.7 70.7 63% 90 30.15 1021.2
18 17:55 SE 12 10.00 Mostly Cloudy BKN250 86.4 70.3 59% 91 30.15 1021.2
18 16:55 SE 9 10.00 Mostly Cloudy BKN250 87.1 68.9 55% 91 30.16 1021.5
18 15:55 SE 10 10.00 Partly Cloudy SCT250 89.1 70.7 55% 95 30.17 1021.8
18 14:55 SE 9 10.00 A Few Clouds FEW040 FEW250 87.6 69.4 55% 92 30.17 1021.8
18 13:55 SE 10 10.00 Partly Cloudy FEW040 SCT250 90 69.3 90.5 71.6 51% 95 30.17 1021.8
18 12:55 SE 3 10.00 Mostly Cloudy FEW040 BKN250 90 70.5 53% 96 30.18 1022.2
18 11:55 Calm 10.00 Mostly Cloudy BKN250 86.7 69.6 57% 91 30.18 1022.2
18 10:55 Calm 10.00 Mostly Cloudy BKN250 82.9 68.5 62% 86 30.19 1022.5
18 09:55 W 5 10.00 Mostly Cloudy BKN250 78.8 66.4 66% 81 30.19 1022.5
18 08:55 W 6 10.00 Mostly Cloudy FEW100 BKN200 75.4 64.4 69% 77 30.19 1022.5
18 07:55 W 3 10.00 Overcast OVC085 71.4 62.6 71.6 68.2 74% 30.18 1022.2
18 06:55 SW 5 10.00 Mostly Cloudy BKN075 69.8 61.5 75% 30.17 1021.9
18 05:55 W 6 10.00 Mostly Cloudy BKN090 69.3 61.3 76% 30.15 1021.2
18 04:55 SW 6 10.00 Mostly Cloudy BKN090 68.5 61 77% 30.12 1020.2
18 03:55 SW 6 10.00 Mostly Cloudy BKN090 68.5 61 77% 30.11 1019.8
18 02:55 SW 3 10.00 A Few Clouds FEW085 69.3 61 75% 30.11 1019.8
18 01:55 SW 3 10.00 Mostly Cloudy BKN085 70.3 60.8 78.3 70.3 72% 30.11 1019.8
18 00:55 SW 6 10.00 Mostly Cloudy BKN085 71.1 60.8 70% 30.11 1019.8
17 23:55 S 6 10.00 A Few Clouds FEW220 72 60.4 67% 30.11 1019.8
17 22:55 SW 7 10.00 Partly Cloudy FEW100 SCT220 73.4 60.4 64% 30.11 1019.8
17 21:55 S 6 10.00 Partly Cloudy FEW050 FEW100 SCT220 74.7 63 67% 30.1 1019.5
17 20:55 S 8 10.00 Partly Cloudy FEW050 FEW100 SCT220 76.3 64 66% 78 30.09 1019.1
17 19:55 S 8 10.00 Mostly Cloudy FEW050 FEW100 BKN220 78.4 63.3 82 74.8 60% 80 30.09 1019.2
17 18:55 S 8 10.00 Mostly Cloudy FEW050 FEW100 BKN220 80.4 63.3 56% 82 30.07 1018.5
17 17:55 S 10 10.00 Mostly Cloudy FEW050 FEW100 BKN220 81.9 63 53% 83 30.07 1018.5
17 16:55 SW 10 10.00 Mostly Cloudy FEW060 SCT100 BKN220 81.1 62.8 54% 82 30.07 1018.5
17 15:55 SW 10 10.00 Mostly Cloudy FEW060 SCT150 BKN220 81.3 61.9 52% 82 30.09 1019.2
17 14:55 SE 7 10.00 Mostly Cloudy FEW060 BKN150 BKN220 75.6 61.5 62% 78 30.09 1019.2
17 13:55 SE 12 10.00 Mostly Cloudy FEW120 BKN150 BKN210 74.7 60.3 78.6 63.7 61% 30.11 1019.8
17 12:55 S 10 10.00 Mostly Cloudy SCT160 BKN250 76.5 60.6 58% 78 30.12 1020.2
17 11:55 S 12 10.00 Mostly Cloudy FEW200 BKN250 78.1 59 52% 79 30.12 1020.2
17 10:55 S 10 10.00 Mostly Cloudy FEW160 SCT200 BKN250 74.5 57.2 55% 30.15 1021.2
17 09:55 S 7 10.00 Mostly Cloudy FEW160 SCT210 BKN250 70.3 54.9 58% 30.18 1022.2
17 08:55 S 7 10.00 Mostly Cloudy FEW160 BKN210 68.7 56.5 65% 30.19 1022.6
17 07:55 S 7 10.00 Mostly Cloudy SCT170 BKN210 63.5 54.7 63.7 59.2 73% 30.21 1023.3
17 06:55 S 6 10.00 Mostly Cloudy BKN170 BKN210 61.7 53.6 75% 30.21 1023.2
17 05:55 S 6 10.00 Mostly Cloudy SCT160 BKN210 59.2 52.7 79% 30.2 1022.9
17 04:55 SW 5 10.00 Mostly Cloudy BKN130 60.1 52.2 75% 30.2 1022.9
17 03:55 SW 7 10.00 Overcast BKN130 OVC150 61.5 52 71% 30.19 1022.6
17 02:55 SW 6 10.00 Overcast OVC120 61.9 51.3 68% 30.19 1022.6
17 01:55 S 5 10.00 Overcast OVC130 61.5 50.9 62.2 60.3 68% 30.19 1022.6
17 00:55 S 5 10.00 Overcast BKN140 OVC200 61.5 50 66% 30.19 1022.6
16 23:55 S 5 10.00 Mostly Cloudy BKN150 61.3 48.6 63% 30.19 1022.6
16 22:55 S 5 10.00 Mostly Cloudy BKN180 BKN200 60.6 47.1 61% 30.2 1022.9
16 21:55 S 5 10.00 Mostly Cloudy BKN190 61.2 48.4 63% 30.21 1023.2
16 20:55 S 5 10.00 Mostly Cloudy FEW100 BKN220 61.9 46.9 58% 30.21 1023.2
16 19:55 SE 7 10.00 Mostly Cloudy FEW100 BKN200 62.2 50.4 68.9 62.2 65% 30.2 1022.9
16 18:55 SE 9 10.00 Mostly Cloudy FEW190 BKN250 64.6 48.6 56% 30.2 1022.9
16 17:55 SE 10 10.00 Mostly Cloudy FEW190 BKN250 67.8 47.5 48% 30.2 1022.9
16 16:55 SE 10 10.00 Mostly Cloudy FEW190 BKN250 67.1 46.8 48% 30.21 1023.3
16 15:55 SE 12 10.00 Mostly Cloudy FEW160 SCT200 BKN250 68 43.3 41% 30.21 1023.3
16 14:55 SE 9 10.00 Mostly Cloudy FEW160 SCT200 BKN250 67.5 42.3 40% 30.22 1023.6
16 13:55 SE 12 10.00 Mostly Cloudy FEW160 SCT200 BKN250 68.4 41.7 68.9 60.6 38% 30.24 1024.3
16 12:55 SE 8 10.00 Mostly Cloudy FEW120 SCT200 BKN250 68.2 41.5 38% 30.25 1024.6
16 11:55 E 7 10.00 Mostly Cloudy BKN220 67.5 41 38% 30.25 1024.6
16 10:55 Calm 10.00 Partly Cloudy SCT250 66.7 39.6 37% 30.25 1024.6
16 09:55 E 6 10.00 A Few Clouds FEW250 67.5 41.5 39% 30.26 1024.9
16 08:55 NE 5 10.00 A Few Clouds FEW250 64.8 43 45% 30.26 1024.9
16 07:55 NW 6 10.00 A Few Clouds FEW250 60.3 43.5 60.3 48.2 54% 30.26 1024.9
16 06:55 NW 5 10.00 A Few Clouds FEW220 55.2 46.8 73% 30.24 1024.3
16 05:55 W 3 10.00 A Few Clouds FEW220 50.5 45 81% 30.21 1023.3
16 04:55 Calm 10.00 Fair CLR 49.6 44.4 82% 30.18 1022.2
16 03:55 Calm 10.00 Fair CLR 51.8 44.4 76% 30.17 1021.9
16 02:55 Calm 10.00 Fair CLR 52.7 44.2 73% 30.17 1021.9
Date Time (edt) Wind (mph) Vis. (mi.) Weather Sky Cond. Air Dwpt Max. Min. Relative Humidity Wind Chill (°F) Heat Index (°F) altimeter (in) sea level (mb) 1 hr 3 hr 6 hr
6 hour
Temperature (ºF) Pressure Precipitation (in)